contact:dominique.lefevre@mio.osupytheas.fr, maurice.libes@osupytheas.fr, didier.mallarino@osupytheas.fr
Project:EMSO http://www.emso-fr.org/EMSO-France
Depth: 2436.0 m
Title:EMSO Ligure Ouest : Data MII capteur AQUADOPP
Date,Latitude,Longitude,X_East,Y_North,Z_Up,Amplitude_X,Amplitude_Y,Amplitude_Z,Batterie,SoundSpeed,Heading,Pitch,Roll,Pressure,TIS,Speed,Direction
, degrees North, degrees East, m.s-1, m.s-1,m.s-1, 1, 1, 1, Volt, m.s-1, degree, degree, degree, dbar, degree_C, m.s-1, degree
2020-11-26T00:04:03,42.805,6.029,0.063,-0.039,-0.008,103.0,110.0,99.0,13.4,1505.2,325.8,-0.7,1.8,2470.432,13.3,0.074,121.8
2020-11-26T00:07:03,42.805,6.029,0.06,-0.009,0.01,101.0,109.0,100.0,13.4,1505.3,326.0,-0.7,1.8,2470.417,13.31,0.06,98.5
2020-11-26T00:10:03,42.805,6.029,0.036,-0.025,-0.007,102.0,112.0,100.0,13.4,1505.3,323.6,-0.7,1.9,2470.428,13.31,0.043,124.8
2020-11-26T00:13:03,42.805,6.029,0.037,-0.014,0.025,104.0,108.0,99.0,13.4,1505.3,327.6,-0.7,1.9,2470.432,13.31,0.039,110.7
2020-11-26T00:16:03,42.805,6.029,0.047,-0.037,0.0,102.0,107.0,100.0,13.4,1505.3,324.4,-0.7,1.8,2470.401,13.31,0.059,128.2
2020-11-26T00:19:03,42.805,6.029,0.039,-0.026,-0.016,102.0,108.0,100.0,13.3,1505.3,326.7,-0.7,1.8,2470.416,13.32,0.046,123.7
2020-11-26T00:22:03,42.805,6.029,0.059,-0.003,0.005,102.0,112.0,100.0,13.4,1505.3,322.7,-0.7,1.8,2470.454,13.32,0.059,92.9
2020-11-26T00:25:03,42.805,6.029,0.039,-0.017,0.015,101.0,110.0,100.0,13.4,1505.3,324.5,-0.7,1.8,2470.434,13.32,0.042,113.5
2020-11-26T00:28:03,42.805,6.029,0.058,-0.013,0.021,103.0,106.0,98.0,13.4,1505.3,325.1,-0.7,1.8,2470.449,13.32,0.059,102.6
2020-11-26T00:31:03,42.805,6.029,0.046,-0.015,0.003,102.0,111.0,99.0,13.4,1505.3,323.4,-0.7,1.8,2470.408,13.32,0.048,108.1
2020-11-26T00:34:03,42.805,6.029,0.055,-0.024,0.009,101.0,111.0,99.0,13.4,1505.3,325.7,-0.7,1.8,2470.429,13.32,0.06,113.6
2020-11-26T00:37:03,42.805,6.029,0.046,0.0,0.039,102.0,114.0,100.0,13.4,1505.3,328.0,-0.7,1.8,2470.401,13.32,0.046,90.0
2020-11-26T00:40:03,42.805,6.029,0.056,-0.008,0.061,102.0,113.0,101.0,13.4,1505.3,327.5,-0.7,1.8,2470.447,13.32,0.056,98.1
2020-11-26T00:43:03,42.805,6.029,0.045,0.009,0.01,102.0,112.0,101.0,13.3,1505.3,325.0,-0.7,1.8,2470.407,13.32,0.045,78.7
2020-11-26T00:46:03,42.805,6.029,0.055,-0.024,0.018,101.0,109.0,100.0,13.4,1505.3,326.6,-0.7,1.8,2470.419,13.32,0.06,113.6
2020-11-26T00:49:03,42.805,6.029,0.05,0.002,0.0,103.0,109.0,100.0,13.4,1505.3,322.8,-0.7,1.8,2470.441,13.32,0.05,87.7
2020-11-26T00:52:03,42.805,6.029,0.035,-0.031,-0.019,102.0,112.0,100.0,13.4,1505.3,324.9,-0.7,1.8,2470.441,13.32,0.046,131.5
2020-11-26T00:55:03,42.805,6.029,0.085,-0.026,-0.043,102.0,111.0,99.0,13.4,1505.3,328.1,-0.8,1.8,2470.427,13.32,0.088,107.0
2020-11-26T00:58:03,42.805,6.029,0.044,-0.02,-0.006,103.0,110.0,100.0,13.4,1505.3,325.5,-0.7,1.8,2470.421,13.32,0.048,114.4
2020-11-26T01:04:03,42.805,6.029,0.037,-0.029,0.018,102.0,111.0,103.0,13.4,1505.2,324.7,-0.7,1.8,2470.486,13.3,0.047,128.1
2020-11-26T01:07:03,42.805,6.029,0.053,-0.015,-0.001,102.0,112.0,100.0,13.4,1505.3,324.5,-0.7,1.8,2470.453,13.31,0.055,105.8
2020-11-26T01:10:03,42.805,6.029,0.051,-0.019,0.032,101.0,106.0,101.0,13.4,1505.3,324.3,-0.7,1.8,2470.485,13.31,0.054,110.4
2020-11-26T01:13:03,42.805,6.029,0.026,0.002,-0.024,101.0,113.0,101.0,13.4,1505.3,324.2,-0.8,1.8,2470.486,13.31,0.026,85.6
2020-11-26T01:16:03,42.805,6.029,0.06,-0.001,-0.001,102.0,113.0,100.0,13.3,1505.3,325.3,-0.7,1.8,2470.443,13.31,0.06,91.0
2020-11-26T01:19:03,42.805,6.029,0.043,-0.01,0.021,102.0,111.0,100.0,13.4,1505.3,327.2,-0.7,1.8,2470.494,13.32,0.044,103.1
2020-11-26T01:22:03,42.805,6.029,0.027,-0.006,-0.018,102.0,112.0,101.0,13.4,1505.3,326.1,-0.7,1.8,2470.455,13.32,0.027,102.5
2020-11-26T01:25:03,42.805,6.029,0.057,-0.012,0.018,102.0,113.0,101.0,13.3,1505.3,326.0,-0.7,1.8,2470.423,13.32,0.058,101.9
2020-11-26T01:28:03,42.805,6.029,0.055,-0.035,-0.016,102.0,110.0,101.0,13.4,1505.3,324.9,-0.7,1.9,2470.496,13.32,0.065,122.5
2020-11-26T01:31:03,42.805,6.029,0.041,-0.031,0.002,101.0,113.0,99.0,13.4,1505.3,323.9,-0.7,1.8,2470.493,13.32,0.051,127.1
2020-11-26T01:34:03,42.805,6.029,0.049,-0.024,-0.007,102.0,111.0,100.0,13.3,1505.3,324.5,-0.7,1.8,2470.509,13.32,0.054,116.1
2020-11-26T01:37:03,42.805,6.029,0.038,-0.008,-0.012,104.0,111.0,99.0,13.4,1505.3,325.9,-0.7,1.8,2470.419,13.32,0.038,101.9
2020-11-26T01:40:03,42.805,6.029,0.062,0.002,0.023,102.0,111.0,100.0,13.3,1505.3,327.9,-0.7,1.8,2470.484,13.32,0.062,88.2
2020-11-26T01:43:03,42.805,6.029,0.088,-0.013,0.029,101.0,113.0,101.0,13.4,1505.3,323.0,-0.7,1.8,2470.469,13.32,0.088,98.4
2020-11-26T01:46:03,42.805,6.029,0.041,-0.012,0.024,102.0,109.0,100.0,13.4,1505.3,326.1,-0.7,1.8,2470.472,13.32,0.042,106.3
2020-11-26T01:49:03,42.805,6.029,0.077,-0.026,0.003,101.0,109.0,99.0,13.4,1505.3,324.8,-0.7,1.8,2470.478,13.32,0.081,108.7
2020-11-26T01:52:03,42.805,6.029,0.092,-0.017,0.029,101.0,104.0,100.0,13.3,1505.3,325.9,-0.7,1.8,2470.476,13.32,0.093,100.5
2020-11-26T01:55:03,42.805,6.029,0.049,-0.018,-0.012,102.0,109.0,100.0,13.4,1505.3,328.4,-0.7,1.8,2470.468,13.32,0.052,110.2
2020-11-26T01:58:03,42.805,6.029,0.052,-0.018,0.034,103.0,108.0,100.0,13.4,1505.3,324.5,-0.7,1.8,2470.46,13.32,0.055,109.1
2020-11-26T02:04:03,42.805,6.029,0.062,-0.026,0.004,101.0,110.0,101.0,13.4,1505.2,325.7,-0.7,1.8,2470.513,13.3,0.067,112.7
2020-11-26T02:07:03,42.805,6.029,0.051,-0.005,-0.017,102.0,105.0,101.0,13.3,1505.3,325.0,-0.7,1.8,2470.498,13.31,0.051,95.6
2020-11-26T02:10:03,42.805,6.029,0.059,-0.024,0.013,102.0,109.0,101.0,13.3,1505.3,324.7,-0.7,1.8,2470.496,13.31,0.063,112.1
2020-11-26T02:13:03,42.805,6.029,0.065,-0.012,0.014,102.0,110.0,100.0,13.4,1505.3,324.0,-0.7,1.8,2470.513,13.31,0.066,100.5
2020-11-26T02:16:03,42.805,6.029,0.051,-0.014,-0.001,102.0,107.0,100.0,13.4,1505.3,326.1,-0.7,1.8,2470.52,13.31,0.052,105.3
2020-11-26T02:19:03,42.805,6.029,0.069,-0.001,0.008,102.0,106.0,100.0,13.4,1505.3,327.6,-0.7,1.8,2470.488,13.32,0.069,90.8
2020-11-26T02:22:03,42.805,6.029,0.025,-0.004,0.0,101.0,107.0,101.0,13.3,1505.3,325.0,-0.7,1.9,2470.519,13.32,0.025,99.1
2020-11-26T02:25:03,42.805,6.029,0.049,-0.025,-0.007,102.0,111.0,100.0,13.4,1505.3,327.2,-0.7,1.9,2470.482,13.32,0.055,117.0
2020-11-26T02:28:03,42.805,6.029,0.087,0.0,0.015,102.0,108.0,100.0,13.4,1505.3,326.6,-0.7,1.8,2470.494,13.32,0.086,90.0
2020-11-26T02:31:03,42.805,6.029,0.059,-0.022,0.017,102.0,108.0,100.0,13.4,1505.3,326.3,-0.7,1.8,2470.538,13.32,0.062,110.4
2020-11-26T02:34:03,42.805,6.029,0.075,-0.009,0.015,100.0,110.0,99.0,13.3,1505.3,325.5,-0.7,1.8,2470.486,13.32,0.075,96.8
2020-11-26T02:37:03,42.805,6.029,0.07,-0.013,0.003,103.0,109.0,100.0,13.4,1505.3,325.1,-0.7,1.8,2470.509,13.32,0.071,100.5
2020-11-26T02:40:03,42.805,6.029,0.065,-0.028,-0.01,102.0,109.0,100.0,13.3,1505.3,326.4,-0.7,1.8,2470.457,13.32,0.07,113.3
2020-11-26T02:43:03,42.805,6.029,0.069,-0.004,0.037,102.0,109.0,100.0,13.4,1505.3,326.3,-0.7,1.8,2470.499,13.32,0.069,93.3
2020-11-26T02:46:03,42.805,6.029,0.095,-0.026,0.022,102.0,107.0,100.0,13.4,1505.3,323.4,-0.7,1.8,2470.465,13.32,0.098,105.3
2020-11-26T02:49:03,42.805,6.029,0.07,-0.027,0.008,102.0,105.0,101.0,13.3,1505.3,326.3,-0.7,1.8,2470.47,13.32,0.075,111.1
2020-11-26T02:52:03,42.805,6.029,0.078,-0.029,0.007,102.0,108.0,100.0,13.4,1505.3,328.5,-0.7,1.8,2470.503,13.32,0.083,110.4
2020-11-26T02:55:03,42.805,6.029,0.084,-0.032,0.008,102.0,105.0,100.0,13.4,1505.3,326.0,-0.7,1.8,2470.514,13.32,0.089,110.9
2020-11-26T02:58:03,42.805,6.029,0.062,-0.011,0.012,102.0,107.0,100.0,13.3,1505.3,323.4,-0.7,1.8,2470.499,13.32,0.062,100.1
2020-11-26T03:04:03,42.805,6.029,0.048,-0.015,-0.006,100.0,108.0,101.0,13.4,1505.2,324.5,-0.7,1.8,2470.515,13.3,0.05,107.4
2020-11-26T03:07:03,42.805,6.029,0.052,-0.01,-0.008,103.0,105.0,99.0,13.4,1505.3,326.4,-0.7,1.8,2470.559,13.31,0.052,100.9
2020-11-26T03:10:03,42.805,6.029,0.064,-0.026,-0.007,102.0,109.0,100.0,13.4,1505.3,327.9,-0.7,1.8,2470.502,13.31,0.069,112.1
2020-11-26T03:13:03,42.805,6.029,0.084,-0.029,0.019,103.0,106.0,100.0,13.3,1505.3,328.0,-0.7,1.8,2470.545,13.31,0.088,109.0
2020-11-26T03:16:03,42.805,6.029,0.067,-0.024,-0.003,102.0,105.0,100.0,13.3,1505.3,324.7,-0.7,1.8,2470.513,13.31,0.071,109.7
2020-11-26T03:19:03,42.805,6.029,0.078,-0.021,0.004,102.0,107.0,100.0,13.4,1505.3,326.1,-0.7,1.8,2470.559,13.31,0.08,105.1
2020-11-26T03:22:03,42.805,6.029,0.078,-0.032,-0.009,102.0,104.0,99.0,13.3,1505.3,325.2,-0.7,1.8,2470.535,13.32,0.084,112.3
2020-11-26T03:25:03,42.805,6.029,0.082,-0.044,0.018,103.0,103.0,99.0,13.4,1505.3,324.4,-0.7,1.9,2470.509,13.32,0.093,118.2
2020-11-26T03:28:03,42.805,6.029,0.084,-0.024,0.026,101.0,104.0,100.0,13.4,1505.3,324.0,-0.7,1.8,2470.571,13.32,0.087,105.9
2020-11-26T03:31:03,42.805,6.029,0.098,-0.032,-0.012,102.0,104.0,100.0,13.4,1505.3,323.7,-0.7,1.8,2470.52,13.32,0.103,108.1
2020-11-26T03:34:03,42.805,6.029,0.097,-0.002,0.021,103.0,102.0,100.0,13.4,1505.3,326.2,-0.7,1.9,2470.53,13.32,0.097,91.2
2020-11-26T03:37:03,42.805,6.029,0.076,-0.021,0.01,102.0,104.0,100.0,13.3,1505.3,327.3,-0.7,1.9,2470.503,13.32,0.078,105.4
2020-11-26T03:40:03,42.805,6.029,0.094,-0.043,-0.018,102.0,102.0,100.0,13.4,1505.3,322.8,-0.7,1.8,2470.508,13.32,0.103,114.6
2020-11-26T03:43:03,42.805,6.029,0.082,-0.023,0.002,104.0,104.0,99.0,13.3,1505.3,325.2,-0.7,1.8,2470.532,13.32,0.085,105.7
2020-11-26T03:46:03,42.805,6.029,0.059,-0.011,0.027,101.0,105.0,100.0,13.4,1505.3,324.5,-0.7,1.8,2470.527,13.32,0.06,100.6
2020-11-26T03:49:03,42.805,6.029,0.06,-0.027,0.014,102.0,106.0,99.0,13.3,1505.3,327.8,-0.7,1.8,2470.536,13.32,0.065,114.2
2020-11-26T03:52:03,42.805,6.029,0.093,-0.023,0.004,101.0,104.0,99.0,13.4,1505.3,323.0,-0.7,1.8,2470.575,13.32,0.095,103.9
2020-11-26T03:55:03,42.805,6.029,0.088,-0.019,-0.003,101.0,104.0,100.0,13.4,1505.3,322.7,-0.7,1.8,2470.522,13.32,0.09,102.2
2020-11-26T03:58:03,42.805,6.029,0.086,-0.016,0.038,102.0,103.0,100.0,13.4,1505.3,325.7,-0.7,1.8,2470.509,13.32,0.087,100.5
2020-11-26T04:04:03,42.805,6.029,0.051,-0.009,0.017,101.0,106.0,100.0,13.4,1505.2,325.9,-0.7,1.8,2470.526,13.3,0.051,100.0
2020-11-26T04:07:03,42.805,6.029,0.068,-0.013,-0.007,100.0,105.0,101.0,13.4,1505.3,327.7,-0.7,1.9,2470.526,13.31,0.069,100.8
2020-11-26T04:10:03,42.805,6.029,0.09,-0.018,-0.016,102.0,104.0,100.0,13.3,1505.3,325.5,-0.7,1.8,2470.588,13.31,0.091,101.3
2020-11-26T04:13:03,42.805,6.029,0.085,-0.036,0.021,102.0,103.0,100.0,13.4,1505.3,324.5,-0.7,1.8,2470.56,13.31,0.092,113.0
2020-11-26T04:16:03,42.805,6.029,0.096,-0.021,0.005,101.0,103.0,99.0,13.4,1505.3,324.6,-0.7,1.9,2470.535,13.31,0.098,102.3
2020-11-26T04:19:03,42.805,6.029,0.057,-0.034,-0.029,102.0,104.0,100.0,13.3,1505.3,326.3,-0.7,1.8,2470.55,13.32,0.066,120.8
2020-11-26T04:22:03,42.805,6.029,0.084,-0.008,0.02,101.0,103.0,100.0,13.4,1505.3,323.0,-0.7,1.8,2470.537,13.32,0.084,95.4
2020-11-26T04:25:03,42.805,6.029,0.066,-0.017,0.027,101.0,106.0,100.0,13.4,1505.3,326.8,-0.7,1.8,2470.56,13.32,0.068,104.4
2020-11-26T04:28:03,42.805,6.029,0.077,-0.022,0.024,102.0,104.0,100.0,13.3,1505.3,327.3,-0.7,1.8,2470.545,13.32,0.08,105.9
2020-11-26T04:31:03,42.805,6.029,0.062,-0.027,0.0,102.0,104.0,99.0,13.3,1505.3,328.5,-0.7,1.8,2470.557,13.32,0.067,113.5
2020-11-26T04:37:03,42.805,6.029,0.078,-0.032,0.025,101.0,101.0,100.0,13.4,1505.2,326.5,-0.7,1.8,2470.551,13.3,0.084,112.3
2020-11-26T04:40:03,42.805,6.029,0.07,-0.028,0.018,102.0,102.0,100.0,13.4,1505.3,326.4,-0.7,1.8,2470.583,13.31,0.075,111.8
2020-11-26T04:43:03,42.805,6.029,0.058,-0.039,0.003,101.0,104.0,99.0,13.4,1505.3,327.6,-0.7,1.8,2470.604,13.31,0.069,123.9
2020-11-26T04:46:03,42.805,6.029,0.092,-0.034,0.025,101.0,104.0,100.0,13.4,1505.3,324.9,-0.7,1.9,2470.576,13.31,0.098,110.3
2020-11-26T04:49:03,42.805,6.029,0.095,-0.02,0.047,102.0,106.0,99.0,13.4,1505.3,324.1,-0.7,1.8,2470.591,13.31,0.097,101.9
2020-11-26T04:52:03,42.805,6.029,0.086,-0.038,0.047,102.0,102.0,100.0,13.4,1505.3,326.5,-0.8,1.9,2470.547,13.32,0.094,113.8
2020-11-26T04:55:03,42.805,6.029,0.088,-0.026,0.0,103.0,101.0,101.0,13.4,1505.3,323.3,-0.7,1.8,2470.491,13.32,0.091,106.5
2020-11-26T04:58:03,42.805,6.029,0.085,-0.02,0.008,102.0,103.0,100.0,13.4,1505.3,327.6,-0.7,1.8,2470.544,13.32,0.087,103.2
2020-11-26T05:04:03,42.805,6.029,0.094,-0.027,0.022,102.0,103.0,100.0,13.3,1505.2,327.3,-0.7,1.8,2470.593,13.3,0.097,106.0
2020-11-26T05:07:03,42.805,6.029,0.092,-0.021,0.026,102.0,103.0,100.0,13.4,1505.3,324.5,-0.7,1.8,2470.571,13.31,0.094,102.9
2020-11-26T05:10:03,42.805,6.029,0.07,-0.025,0.015,103.0,103.0,100.0,13.3,1505.3,326.7,-0.7,1.8,2470.566,13.31,0.074,109.6
2020-11-26T05:13:03,42.805,6.029,0.092,-0.032,0.034,103.0,102.0,99.0,13.4,1505.3,324.6,-0.7,1.8,2470.577,13.31,0.097,109.2
2020-11-26T05:16:03,42.805,6.029,0.091,-0.034,0.012,102.0,103.0,101.0,13.3,1505.3,327.7,-0.7,1.9,2470.539,13.31,0.097,110.5
2020-11-26T05:19:03,42.805,6.029,0.069,-0.031,-0.007,103.0,104.0,101.0,13.4,1505.3,323.4,-0.7,1.8,2470.549,13.32,0.075,114.2
2020-11-26T05:22:03,42.805,6.029,0.083,-0.02,0.031,103.0,102.0,99.0,13.4,1505.3,325.1,-0.7,1.8,2470.543,13.32,0.085,103.5
2020-11-26T05:25:03,42.805,6.029,0.078,-0.004,0.034,102.0,103.0,100.0,13.4,1505.3,323.2,-0.7,1.8,2470.555,13.32,0.078,92.9
2020-11-26T05:28:03,42.805,6.029,0.074,-0.027,0.003,100.0,106.0,101.0,13.4,1505.3,323.5,-0.7,1.8,2470.543,13.32,0.078,110.0
2020-11-26T05:31:03,42.805,6.029,0.068,-0.024,0.002,103.0,103.0,99.0,13.4,1505.3,324.0,-0.7,1.8,2470.564,13.32,0.072,109.4
2020-11-26T05:34:03,42.805,6.029,0.065,-0.025,0.011,102.0,103.0,99.0,13.4,1505.3,326.3,-0.7,1.8,2470.555,13.32,0.069,111.0
2020-11-26T05:37:03,42.805,6.029,0.077,-0.031,0.0,102.0,104.0,100.0,13.4,1505.3,323.5,-0.7,1.9,2470.54,13.32,0.083,111.9
2020-11-26T05:40:03,42.805,6.029,0.083,-0.034,0.004,101.0,103.0,100.0,13.4,1505.3,326.0,-0.6,1.8,2470.546,13.32,0.089,112.3
2020-11-26T05:43:03,42.805,6.029,0.08,-0.032,0.002,101.0,103.0,100.0,13.4,1505.3,324.1,-0.7,1.8,2470.553,13.32,0.086,111.8
2020-11-26T05:46:03,42.805,6.029,0.073,-0.007,0.004,101.0,102.0,100.0,13.4,1505.3,325.0,-0.7,1.8,2470.519,13.32,0.073,95.5
2020-11-26T05:49:03,42.805,6.029,0.062,-0.033,-0.025,102.0,105.0,99.0,13.3,1505.3,327.2,-0.7,1.8,2470.596,13.32,0.07,118.0
2020-11-26T05:52:03,42.805,6.029,0.078,-0.033,0.005,102.0,102.0,100.0,13.3,1505.3,323.2,-0.7,1.8,2470.51,13.32,0.084,112.9
2020-11-26T05:55:03,42.805,6.029,0.065,-0.044,0.019,101.0,104.0,99.0,13.3,1505.3,324.4,-0.7,1.8,2470.533,13.32,0.078,124.1
2020-11-26T05:58:03,42.805,6.029,0.072,-0.009,0.022,102.0,103.0,100.0,13.4,1505.3,324.1,-0.7,1.8,2470.544,13.32,0.072,97.1
2020-11-26T06:04:03,42.805,6.029,0.096,-0.039,-0.018,101.0,104.0,100.0,13.4,1505.2,325.0,-0.7,1.8,2470.54,13.3,0.103,112.1
2020-11-26T06:07:03,42.805,6.029,0.097,-0.04,-0.048,102.0,104.0,100.0,13.4,1505.3,322.6,-0.7,1.8,2470.571,13.31,0.104,112.4
2020-11-26T06:10:03,42.805,6.029,0.089,-0.029,0.012,102.0,102.0,100.0,13.3,1505.3,323.5,-0.7,1.8,2470.56,13.31,0.093,108.0
2020-11-26T06:13:03,42.805,6.029,0.096,-0.037,0.016,102.0,101.0,99.0,13.4,1505.3,326.2,-0.7,1.9,2470.509,13.31,0.102,111.1
2020-11-26T06:16:03,42.805,6.029,0.069,-0.013,0.009,102.0,104.0,100.0,13.3,1505.3,325.2,-0.7,1.9,2470.565,13.31,0.07,100.7
2020-11-26T06:22:03,42.805,6.029,0.09,-0.054,-0.011,102.0,103.0,99.0,13.4,1505.2,326.4,-0.7,1.8,2470.589,13.3,0.104,121.0
2020-11-26T06:25:03,42.805,6.029,0.082,-0.027,-0.012,102.0,101.0,99.0,13.4,1505.3,324.6,-0.7,1.8,2470.529,13.31,0.086,108.2
2020-11-26T06:28:03,42.805,6.029,0.083,-0.019,0.029,102.0,103.0,99.0,13.4,1505.3,324.0,-0.7,1.8,2470.591,13.31,0.085,102.9
2020-11-26T06:31:03,42.805,6.029,0.078,-0.03,0.002,102.0,102.0,100.0,13.4,1505.3,324.6,-0.7,1.8,2470.591,13.31,0.083,111.0
2020-11-26T06:34:03,42.805,6.029,0.049,-0.014,0.021,103.0,104.0,100.0,13.3,1505.3,325.8,-0.7,1.8,2470.571,13.31,0.05,105.9
2020-11-26T06:37:03,42.805,6.029,0.087,-0.017,0.036,101.0,104.0,100.0,13.3,1505.3,326.1,-0.7,1.8,2470.565,13.32,0.088,101.1
2020-11-26T06:40:03,42.805,6.029,0.102,-0.036,0.038,101.0,103.0,100.0,13.3,1505.3,323.4,-0.7,1.8,2470.54,13.32,0.108,109.4
2020-11-26T06:43:03,42.805,6.029,0.088,-0.025,0.037,102.0,103.0,99.0,13.3,1505.3,324.0,-0.7,1.8,2470.547,13.32,0.091,105.9
2020-11-26T06:46:03,42.805,6.029,0.09,-0.029,-0.001,102.0,103.0,100.0,13.3,1505.3,325.6,-0.7,1.8,2470.535,13.32,0.094,107.9
2020-11-26T06:49:03,42.805,6.029,0.075,-0.033,0.001,102.0,104.0,100.0,13.4,1505.3,324.6,-0.7,1.9,2470.512,13.32,0.081,113.7
2020-11-26T06:52:03,42.805,6.029,0.088,-0.035,0.031,102.0,102.0,100.0,13.4,1505.3,324.2,-0.7,1.8,2470.535,13.32,0.094,111.7
2020-11-26T06:55:03,42.805,6.029,0.066,-0.041,0.004,101.0,103.0,99.0,13.4,1505.3,328.1,-0.7,1.9,2470.54,13.32,0.077,121.8
2020-11-26T06:58:03,42.805,6.029,0.082,-0.035,0.012,101.0,104.0,100.0,13.4,1505.3,328.3,-0.7,1.8,2470.547,13.32,0.089,113.1
2020-11-26T07:04:03,42.805,6.029,0.082,-0.034,-0.017,101.0,102.0,100.0,13.4,1505.2,323.0,-0.7,1.8,2470.583,13.3,0.088,112.5
2020-11-26T07:07:03,42.805,6.029,0.062,-0.036,-0.011,102.0,103.0,100.0,13.4,1505.3,323.0,-0.7,1.8,2470.561,13.31,0.071,120.1
2020-11-26T07:10:03,42.805,6.029,0.086,-0.042,0.027,102.0,103.0,100.0,13.4,1505.3,322.9,-0.7,1.8,2470.587,13.31,0.095,116.0
2020-11-26T07:13:03,42.805,6.029,0.058,-0.015,0.018,102.0,103.0,100.0,13.4,1505.3,324.6,-0.7,1.8,2470.541,13.31,0.059,104.5
2020-11-26T07:16:03,42.805,6.029,0.041,-0.02,-0.007,103.0,104.0,98.0,13.4,1505.3,323.6,-0.7,1.8,2470.518,13.31,0.045,116.0
2020-11-26T07:19:03,42.805,6.029,0.062,-0.019,0.0,102.0,103.0,100.0,13.4,1505.3,325.7,-0.7,1.8,2470.551,13.32,0.064,107.0
2020-11-26T07:22:03,42.805,6.029,0.087,-0.034,0.031,101.0,104.0,100.0,13.4,1505.3,326.7,-0.7,1.8,2470.537,13.32,0.093,111.3
2020-11-26T07:25:03,42.805,6.029,0.093,-0.026,0.021,101.0,103.0,100.0,13.4,1505.3,325.3,-0.7,1.8,2470.561,13.32,0.096,105.6
2020-11-26T07:28:03,42.805,6.029,0.084,-0.038,0.038,102.0,102.0,99.0,13.4,1505.3,327.3,-0.7,1.8,2470.536,13.32,0.092,114.3
2020-11-26T07:31:03,42.805,6.029,0.073,-0.049,-0.002,102.0,102.0,99.0,13.4,1505.3,323.1,-0.7,1.8,2470.539,13.32,0.087,123.9
2020-11-26T07:34:03,42.805,6.029,0.077,-0.043,0.02,100.0,103.0,100.0,13.4,1505.3,325.2,-0.7,1.8,2470.528,13.32,0.088,119.2
2020-11-26T07:37:03,42.805,6.029,0.078,-0.031,-0.032,101.0,102.0,100.0,13.4,1505.3,324.5,-0.7,1.8,2470.527,13.32,0.083,111.7
2020-11-26T07:40:03,42.805,6.029,0.08,-0.035,0.004,101.0,106.0,99.0,13.4,1505.3,325.7,-0.7,1.8,2470.533,13.32,0.087,113.6
2020-11-26T07:43:03,42.805,6.029,0.073,-0.025,0.003,102.0,103.0,101.0,13.4,1505.3,327.6,-0.7,1.8,2470.521,13.32,0.077,108.9
2020-11-26T07:46:03,42.805,6.029,0.065,-0.021,0.027,101.0,102.0,101.0,13.4,1505.3,328.0,-0.7,1.8,2470.539,13.32,0.068,107.9
2020-11-26T07:49:03,42.805,6.029,0.066,-0.022,0.021,102.0,101.0,100.0,13.4,1505.3,326.6,-0.7,1.8,2470.514,13.32,0.069,108.4
2020-11-26T07:52:03,42.805,6.029,0.081,-0.036,0.05,101.0,102.0,100.0,13.4,1505.3,325.1,-0.7,1.8,2470.491,13.32,0.088,114.0
2020-11-26T07:55:03,42.805,6.029,0.077,-0.033,0.002,100.0,104.0,99.0,13.3,1505.3,323.2,-0.7,1.8,2470.542,13.32,0.083,113.2
2020-11-26T07:58:03,42.805,6.029,0.04,-0.005,0.022,101.0,103.0,99.0,13.4,1505.3,323.3,-0.7,1.8,2470.483,13.32,0.04,97.1
2020-11-26T08:04:03,42.805,6.029,0.055,-0.022,0.022,101.0,105.0,99.0,13.4,1505.2,327.0,-0.7,1.8,2470.567,13.3,0.059,111.8
2020-11-26T08:10:03,42.805,6.029,0.08,-0.041,0.01,101.0,103.0,100.0,13.4,1505.2,325.4,-0.8,1.8,2470.587,13.29,0.089,117.1
2020-11-26T08:13:03,42.805,6.029,0.074,-0.037,0.012,101.0,103.0,99.0,13.3,1505.2,326.5,-0.7,1.9,2470.554,13.3,0.082,116.6
2020-11-26T08:16:03,42.805,6.029,0.071,-0.014,0.013,102.0,104.0,99.0,13.4,1505.3,325.6,-0.7,1.8,2470.548,13.31,0.072,101.2
2020-11-26T08:19:03,42.805,6.029,0.058,-0.026,0.005,100.0,102.0,101.0,13.4,1505.3,326.7,-0.7,1.8,2470.548,13.31,0.063,114.1
2020-11-26T08:22:03,42.805,6.029,0.047,-0.025,0.016,101.0,104.0,100.0,13.3,1505.3,322.8,-0.7,1.8,2470.544,13.31,0.053,118.0
2020-11-26T08:25:03,42.805,6.029,0.046,-0.022,0.011,103.0,103.0,98.0,13.4,1505.3,327.8,-0.7,1.8,2470.499,13.32,0.05,115.6
2020-11-26T08:31:03,42.805,6.029,0.052,-0.021,-0.004,101.0,103.0,100.0,13.4,1505.2,324.9,-0.7,1.8,2470.539,13.3,0.056,112.0
2020-11-26T08:34:03,42.805,6.029,0.066,-0.019,0.025,103.0,103.0,100.0,13.4,1505.3,326.8,-0.7,1.9,2470.558,13.31,0.068,106.1
2020-11-26T08:37:03,42.805,6.029,0.074,-0.024,0.025,102.0,104.0,99.0,13.4,1505.3,324.2,-0.7,1.8,2470.556,13.31,0.077,108.0
2020-11-26T08:40:03,42.805,6.029,0.058,-0.033,0.008,103.0,103.0,99.0,13.4,1505.3,326.6,-0.7,1.8,2470.521,13.31,0.066,119.6
2020-11-26T08:43:03,42.805,6.029,0.06,-0.038,0.025,102.0,103.0,100.0,13.4,1505.3,323.8,-0.7,1.8,2470.506,13.31,0.071,122.3
2020-11-26T08:46:03,42.805,6.029,0.071,-0.025,0.018,102.0,103.0,100.0,13.3,1505.3,326.7,-0.7,1.8,2470.526,13.32,0.075,109.4
2020-11-26T08:49:03,42.805,6.029,0.078,-0.038,0.018,102.0,104.0,100.0,13.4,1505.3,325.8,-0.7,1.8,2470.508,13.32,0.086,116.0
2020-11-26T08:52:03,42.805,6.029,0.08,-0.01,0.048,101.0,103.0,99.0,13.4,1505.3,325.8,-0.7,1.8,2470.479,13.32,0.08,97.1
2020-11-26T08:55:03,42.805,6.029,0.08,-0.023,0.017,103.0,104.0,100.0,13.4,1505.3,323.0,-0.7,1.8,2470.543,13.32,0.083,106.0
2020-11-26T08:58:03,42.805,6.029,0.059,-0.04,0.037,101.0,103.0,100.0,13.4,1505.3,324.8,-0.7,1.8,2470.532,13.32,0.071,124.1
2020-11-26T09:04:03,42.805,6.029,0.076,-0.024,0.026,102.0,104.0,100.0,13.3,1505.2,325.6,-0.7,1.8,2470.506,13.3,0.079,107.5
2020-11-26T09:07:03,42.805,6.029,0.069,-0.022,0.035,101.0,104.0,99.0,13.3,1505.3,325.6,-0.7,1.8,2470.533,13.31,0.072,107.7
2020-11-26T09:10:03,42.805,6.029,0.046,-0.016,0.008,101.0,103.0,100.0,13.4,1505.3,324.6,-0.7,1.8,2470.536,13.31,0.048,109.2
2020-11-26T09:13:03,42.805,6.029,0.049,-0.029,0.012,101.0,104.0,100.0,13.4,1505.3,328.1,-0.7,1.8,2470.504,13.31,0.056,120.6
2020-11-26T09:16:03,42.805,6.029,0.058,-0.028,0.02,102.0,105.0,99.0,13.4,1505.3,323.1,-0.7,1.8,2470.505,13.32,0.064,115.8
2020-11-26T09:19:03,42.805,6.029,0.046,-0.05,0.025,102.0,102.0,100.0,13.4,1505.3,326.4,-0.7,1.8,2470.523,13.32,0.067,137.4
2020-11-26T09:22:03,42.805,6.029,0.072,-0.024,-0.004,100.0,104.0,101.0,13.4,1505.3,326.0,-0.7,1.8,2470.523,13.32,0.075,108.4
2020-11-26T09:25:03,42.805,6.029,0.054,-0.023,0.011,101.0,103.0,100.0,13.4,1505.3,326.3,-0.7,1.8,2470.501,13.32,0.058,113.1
2020-11-26T09:28:03,42.805,6.029,0.045,-0.022,0.016,102.0,103.0,99.0,13.3,1505.3,323.6,-0.7,1.8,2470.515,13.32,0.05,116.1
2020-11-26T09:31:03,42.805,6.029,0.063,-0.03,-0.001,102.0,105.0,100.0,13.4,1505.3,323.9,-0.7,1.8,2470.478,13.32,0.069,115.5
2020-11-26T09:34:03,42.805,6.029,0.077,-0.043,0.011,100.0,104.0,100.0,13.4,1505.3,326.8,-0.7,1.8,2470.478,13.32,0.088,119.2
2020-11-26T09:37:03,42.805,6.029,0.055,-0.026,0.0,102.0,104.0,99.0,13.4,1505.3,325.8,-0.7,1.9,2470.488,13.32,0.06,115.3
2020-11-26T09:40:03,42.805,6.029,0.063,-0.026,0.05,101.0,102.0,100.0,13.4,1505.3,325.7,-0.7,1.8,2470.504,13.32,0.068,112.4
2020-11-26T09:43:03,42.805,6.029,0.087,-0.036,0.013,103.0,103.0,99.0,13.3,1505.3,326.3,-0.7,1.8,2470.485,13.32,0.094,112.5
2020-11-26T09:46:03,42.805,6.029,0.081,-0.01,0.036,102.0,104.0,100.0,13.3,1505.3,328.3,-0.7,1.8,2470.486,13.32,0.081,97.0
2020-11-26T09:49:03,42.805,6.029,0.054,-0.027,-0.004,101.0,104.0,101.0,13.4,1505.3,323.5,-0.7,1.8,2470.474,13.32,0.06,116.6
2020-11-26T09:52:03,42.805,6.029,0.085,-0.032,0.016,102.0,105.0,100.0,13.3,1505.3,324.1,-0.7,1.8,2470.513,13.32,0.09,110.6
2020-11-26T09:55:03,42.805,6.029,0.055,-0.029,-0.006,102.0,104.0,99.0,13.3,1505.3,325.1,-0.7,1.8,2470.491,13.32,0.062,117.8
2020-11-26T09:58:03,42.805,6.029,0.072,-0.007,0.021,101.0,107.0,100.0,13.3,1505.3,326.0,-0.7,1.8,2470.507,13.32,0.072,95.5
2020-11-26T10:04:03,42.805,6.029,0.056,-0.018,0.017,102.0,103.0,100.0,13.4,1505.2,327.0,-0.7,1.8,2470.527,13.3,0.058,107.8
2020-11-26T10:07:03,42.805,6.029,0.059,-0.018,0.032,102.0,105.0,100.0,13.4,1505.3,323.3,-0.7,1.8,2470.537,13.31,0.061,107.0
2020-11-26T10:10:03,42.805,6.029,0.073,-0.031,-0.006,101.0,105.0,100.0,13.4,1505.3,324.5,-0.7,1.8,2470.483,13.31,0.079,113.0
2020-11-26T10:13:03,42.805,6.029,0.092,-0.046,0.0,101.0,104.0,100.0,13.4,1505.3,325.9,-0.7,1.8,2470.463,13.31,0.102,116.6